Back to catalog

STARLINK-30595

AliveCommunicationsVLEO
NORAD 58111·PAYLOAD·🇺🇸 United States

Launched Oct 21, 2023 from Vandenberg Space Force Base

Loading…

Next Passes (next 24 hours)

TLE

FreshSource: CelesTrak SupGP

Epoch: Sep 14, 2026, 22:16 UTC

1 58111C 23161Q   26257.92826389 -.00011973  00000+0 -35385-3 0  2574
2 58111  53.1591   5.9601 0001057  67.6070 273.7886 15.34386999    11

Track STARLINK-30595 in real time with AllMySat

Download on the App Store